Regional Weather Roundup
Issued by NWS Cleveland, OH

Home | Current Version | Previous Version | Text Only | Print | Product List | Glossary On
Versions: 1 2 3 4 5 6 7 8 9 10 11 12 13 14 15 16 17 18 19 20 21 22 23 24 25 26 27 28 29 30 31 32 33 34 35 36 37 38 39 40 41 42 43 44 45 46 47 48 49 50
000
ASUS41 KCLE 220610
RWRCLE
OHIO REGIONAL WEATHER ROUNDUP
NATIONAL WEATHER SERVICE WILMINGTON, OH
200 AM EDT WED OCT 22 2014

NOTE: "FAIR" INDICATES FEW OR NO CLOUDS BELOW 12,000 FEET WITH NO
SIGNIFICANT WEATHER AND/OR OBSTRUCTIONS TO VISIBILITY.

OHZ001>008-015>018-024>027-034-035-043-044-220700-
   NORTHWEST OHIO

CITY           SKY/WX    TMP DP  RH WIND       PRES   REMARKS
DEFIANCE       CLOUDY    45  36  70 N6        30.23R
FINDLAY        CLOUDY    45  38  76 N9        30.18S
TOLEDO EXPRESS CLOUDY    44  36  73 N8        30.20F
TOLEDO METCALF CLOUDY    46  37  71 N9        30.20F
LIMA           CLOUDY    45  37  73 N8        30.19S
$$

OHZ009>014-019>023-028>033-038-089-220700-
   NORTHEAST OHIO

CITY           SKY/WX    TMP DP  RH WIND       PRES   REMARKS
CLE-HOPKINS    CLOUDY    48  44  86 N14       30.15R
CLE-LAKEFRONT  CLOUDY    50  45  83 NE15G24   30.12R
CUY CO. ARPT   NOT AVBL
LORAIN-ELYRIA  CLOUDY    47  43  86 N9        30.14S
ASHTABULA      CLOUDY    46  44  93 VRB6      30.11S
AKRON-CANTON   CLOUDY    47  43  86 N9        30.09R
WOOSTER        LGT RAIN  47  44  90 N10       30.11S
MANSFIELD      CLOUDY    44  44 100 NW9       30.13S
YOUNGSTOWN     LGT RAIN  46  44  93 N12       30.07S FOG
$$

OHZ042-051>053-060>062-070>072-077>081-220700-
  SOUTHWEST OHIO

CITY           SKY/WX    TMP DP  RH WIND       PRES   REMARKS
CINC-COVINGTON CLOUDY    48  35  60 NE13      30.18R
CINC-LUNKEN    CLOUDY    48  35  60 N10       30.20S
HAMILTON       CLOUDY    47  37  68 N6        30.20S
DAYTON         CLOUDY    45  38  76 N10       30.20S
WRIGHT-PAT AFB CLOUDY    45  39  80 N7        30.18S
DAYTON GENERAL CLOUDY    45  38  76 N8        30.18R
WILMINGTON     CLOUDY    44  37  76 N13       30.17R
$$

OHZ036-037-039>041-045>050-054>059-063>069-073>076-082>088-220700-
  CENTRAL AND SOUTHEAST OHIO

CITY           SKY/WX    TMP DP  RH WIND       PRES   REMARKS
COLUMBUS       CLOUDY    44  40  85 N10       30.14S
OSU AIRPORT    CLOUDY    44  40  85 N10       30.15S
BOLTON FIELD   CLOUDY    44  41  91 NW10G16   30.16S
RICKENBACK AFB CLOUDY    44  40  83 NW12      30.14F
NEWARK         CLOUDY    46  41  82 NW9       30.12S
MARION         CLOUDY    43  40  89 N14       30.16S
LANCASTER      CLOUDY    45  40  82 NW9       30.14S
ZANESVILLE     CLOUDY    46  41  82 NW10      30.10S
NEW PHILLY     CLOUDY    48  45  89 N7        30.09S
$$



USA.gov is the U.S. government's official web portal to all federal, state and local government web resources and services.